STARLINK-31470, 59569

Orbit data source: Space-Track

STARLINK-31470, 59569 is a payload satellite owned by SpaceX/Seattle (US) in LEO that was launched on Tue, 23 Apr 2024 UTC via an FALCON 9 launch vehicle from the Air Force Eastern Test Range (AFETR). Payload-class satellites include a variety of spacecraft equipped with specific instruments for various scientific and technological missions. These include communications satellites like Starlink; space stations such as the ISS; scientific satellites like the Hubble; Earth observation satellites from companies like Planet Labs, Umbra, and HawkEye 360; GPS; miniature CubeSats for education and research; and military/defense satellites.

Loading next visibility...
Identifier
59569, 2024-076F
Orbit
LEO
Country
Flag of USUS
Related business
Manufacturer
SpaceX/Seattle
Mission
Operational Commercial Communications
Bus & Motor
STARLINK V2M, Unknown motor
Mass
730 kg wet, ~700 kg dry
Launch date (UTC)
2024-04-23 (2 years ago)
Launch vehicle
FALCON 9
Launch site
Air Force Eastern Test Range (AFETR)
Object type
Payload
Rocket body
Debris
Shape & HBR
Box + 2 Pan, 17.7 m
Radar Cross Section
33.884 m², Large (>1 m²)

Expand to show TLE details & history
Last TLE update: 18 hours ago

TLE from 18 hours ago
0 STARLINK-31470
1 59569U 24076F   26035.48370644 -.00000448  00000-0 -67480-5 0  9993
2 59569  43.0010 193.1277 0000998 255.6319 104.4421 15.27578270101373
Epoch: 2026-02-04T11:36Z
TLE epoch observation values (Epoch: 2026-02-04T11:36:32.236Z)
Latitude
-0.00008°
Longitude
-115.65633°
Altitude
483.001 km
Speed
7.626 km/s
True Right ascension
12h 52m 30s
True Declination
0° 00' 00"
Sunlit
Object was in full shadow at epoch
Visualization orbit readout
Latitude
Unknown
Longitude
Unknown
Altitude
Unknown
Speed
Unknown
Apparent Right ascension
Unknown
Apparent Declination
Unknown
Sunlit
N/A
Visualization observer readout
Local Sidereal Time
07:13:34
Azimuth
Unknown
Elevation
Unknown
Doppler factor
Unknown
Orbital elements
Apogee altitude
485.684 km
Perigee altitude
484.314 km
Semi-major axis
6,863.136 km
Eccentricity
0.0001
Inclination
43.001°
RAAN
193.1277°
Arg. of periapsis
255.6319°
True anomaly
104.45317°
Mean anomaly
104.4421°
Eccentric anomaly
104.44764°
Mean motion
3.81733 °/min
Orbital period
94.31 mins
BSTAR
-0.000006748
Loading maneuver chart data...
Computing Atmospheric mass density...
Loading historical data...
Loading historical data...
Loading historical data...
Loading historical data...
Loading historical data...
Loading historical data...
Loading historical data...

Documentation

Showing up to 5 results
|